Showing default

OV1-5, 2122

Orbit data source: Space-Track

OV1-5, 2122 is a payload satellite owned by USAF OAR (US) in LEO that was launched on Wed, 30 Mar 1966 UTC via an ATLAS D launch vehicle from the Air Force Western Test Range (AFWTR). Payload-class satellites include a variety of spacecraft equipped with specific instruments for various scientific and technological missions. These include communications satellites like Starlink; space stations such as the ISS; scientific satellites like the Hubble; Earth observation satellites from companies like Planet Labs, Umbra, and HawkEye 360; GPS; miniature CubeSats for education and research; and military/defense satellites.

Loading next visibility...
Identifier
2122, 1966-025B
Orbit
LEO
Country
Flag of USUS
Related business
Manufacturer
GD/Convair
Mission
Defense Early Warn/Tech
Bus & Motor
OV1, Unknown motor
Mass
114 kg wet, 114 kg dry
Launch date (UTC)
1966-03-30 (59 years ago)
Launch vehicle
ATLAS D
Launch site
Air Force Western Test Range (AFWTR)
Object type
Payload
Rocket body
Debris
Shape & HBR
Domed Cyl, 0.7 m
Radar Cross Section
0.946 m², Medium (>0.1 m² and < 1m²)

Expand to show TLE details & history
Last TLE update: 5 hours ago

TLE from 5 hours ago
0 OV1-5
1 02122U 66025B   25260.27876271  .00000316  00000-0  70497-4 0  9992
2 02122 144.6358  56.3621 0047363 186.9076 173.0938 13.66128822967779
Epoch: 2025-09-17T06:41Z
TLE epoch observation values (Epoch: 2025-09-17T06:41:25.098Z)
Latitude
0.00003°
Longitude
-40.44951°
Altitude
1,047.271 km
Speed
7.313 km/s
True Right ascension
03h 45m 26s
True Declination
0° 00' 00"
Sunlit
Object was in daylight at epoch
Visualization orbit readout
Latitude
Unknown
Longitude
Unknown
Altitude
Unknown
Speed
Unknown
Apparent Right ascension
Unknown
Apparent Declination
Unknown
Sunlit
N/A
Visualization observer readout
Local Sidereal Time
04:06:04
Azimuth
Unknown
Elevation
Unknown
Doppler factor
Unknown
Orbital elements
Apogee altitude
1,051.495 km
Perigee altitude
981.449 km
Semi-major axis
7,394.609 km
Eccentricity
0.00474
Inclination
144.6358°
RAAN
56.3621°
Arg. of periapsis
186.9076°
True anomaly
173.15868°
Mean anomaly
173.0938°
Eccentric anomaly
173.12628°
Mean motion
3.41327 °/min
Orbital period
105.47 mins
BSTAR
0.000070497
Loading maneuver chart data...
Computing Atmospheric mass density...
Loading historical data...
Loading historical data...
Loading historical data...
Loading historical data...
Loading historical data...
Loading historical data...
Loading historical data...

Documentation

Showing up to 5 results
|